Station Historical Data
Daily Summary for August 14, 2017 Units:  Metric    English   Both
« Previous Day
Next Day »
Daily Weekly Monthly Yearly Custom
  High: Low: Average:
Temperature: 28 °C 15.3 °C 21.9 °C
Dew Point: 19.4 °C 12.9 °C 15.8 °C
Humidity: 87% 47% 70%
Wind Speed: 11.3km/h 0km/h 1.4km/h
Wind Gust: 14.5km/h - -
Wind- - SSW
Pressure: 1016.8 hPa 1010 hPa -
Precipitation: 0 mm    
Historical Graphs
 
 
Tabular Data for August 14, 2017
Time Temperature Dew Point Pressure Wind Wind Speed Wind Gust Humidity Rainfall Rate (Hourly)
00:04 17.7 °C 14.4 °C 1016.5 hPa Calm     81% 0 mm
00:09 17.7 °C 14.4 °C 1016.5 hPa Calm     81% 0 mm
00:14 17.6 °C 14.5 °C 1016.5 hPa Calm     82% 0 mm
00:19 17.6 °C 14.3 °C 1016.5 hPa Calm   3.2 km/h 81% 0 mm
00:24 17.6 °C 14.3 °C 1016.5 hPa Calm   1.6 km/h 81% 0 mm
00:29 17.6 °C 14.3 °C 1016.5 hPa Calm   3.2 km/h 81% 0 mm
00:34 17.6 °C 14.3 °C 1016.5 hPa Calm   3.2 km/h 81% 0 mm
00:39 17.6 °C 14.3 °C 1016.5 hPa Calm     81% 0 mm
00:44 17.6 °C 14.4 °C 1016.5 hPa Calm     82% 0 mm
00:49 17.5 °C 14.4 °C 1016.8 hPa Calm     82% 0 mm
00:54 17.5 °C 14.4 °C 1016.5 hPa Calm     82% 0 mm
00:59 17.4 °C 14.3 °C 1016.8 hPa Calm     82% 0 mm
01:04 17.3 °C 14.2 °C 1016.5 hPa Calm     82% 0 mm
01:09 17.3 °C 14.2 °C 1016.5 hPa Calm     82% 0 mm
01:14 17.3 °C 14.2 °C 1016.5 hPa Calm     82% 0 mm
01:19 17.3 °C 14.2 °C 1016.5 hPa Calm     82% 0 mm
01:24 17.2 °C 14.1 °C 1016.5 hPa Calm     82% 0 mm
01:29 17.2 °C 14.1 °C 1016.5 hPa Calm     82% 0 mm
01:34 17.2 °C 14.1 °C 1016.5 hPa Calm     82% 0 mm
01:39 17.2 °C 14.1 °C 1016.1 hPa Calm     82% 0 mm
01:44 17.2 °C 14.1 °C 1016.1 hPa Calm     82% 0 mm
01:49 17.2 °C 14.1 °C 1016.1 hPa Calm     82% 0 mm
01:54 17.2 °C 14.1 °C 1016.5 hPa Calm     82% 0 mm
01:59 17.2 °C 14.1 °C 1016.1 hPa Calm     82% 0 mm
02:04 17.2 °C 14.1 °C 1016.1 hPa Calm     82% 0 mm
02:09 17.1 °C 14 °C 1016.1 hPa Calm     82% 0 mm
02:14 17.1 °C 13.9 °C 1016.1 hPa Calm     82% 0 mm
02:19 16.9 °C 13.8 °C 1016.1 hPa Calm     82% 0 mm
02:24 16.8 °C 13.7 °C 1016.1 hPa Calm     82% 0 mm
02:29 16.7 °C 13.6 °C 1016.1 hPa Calm     82% 0 mm
02:34 16.6 °C 13.7 °C 1016.1 hPa Calm     83% 0 mm
02:39 16.6 °C 13.7 °C 1016.1 hPa Calm     83% 0 mm
02:44 16.4 °C 13.6 °C 1016.1 hPa Calm     83% 0 mm
02:49 16.3 °C 13.6 °C 1016.1 hPa Calm     84% 0 mm
02:54 16.3 °C 13.6 °C 1016.1 hPa Calm     84% 0 mm
02:59 16.3 °C 13.6 °C 1016.1 hPa Calm     84% 0 mm
03:04 16.2 °C 13.4 °C 1016.1 hPa Calm     84% 0 mm
03:09 16.1 °C 13.6 °C 1016.5 hPa Calm     85% 0 mm
03:14 16.1 °C 13.6 °C 1016.1 hPa Calm     85% 0 mm
03:19 15.9 °C 13.4 °C 1016.1 hPa Calm     85% 0 mm
03:24 15.9 °C 13.4 °C 1016.1 hPa Calm     85% 0 mm
03:29 15.9 °C 13.4 °C 1016.1 hPa Calm     85% 0 mm
03:34 15.9 °C 13.4 °C 1016.1 hPa Calm     85% 0 mm
03:39 15.8 °C 13.3 °C 1016.1 hPa Calm     85% 0 mm
03:44 15.8 °C 13.3 °C 1016.1 hPa Calm     85% 0 mm
03:49 15.7 °C 13.2 °C 1016.1 hPa Calm     85% 0 mm
03:54 15.7 °C 13.2 °C 1016.1 hPa Calm     85% 0 mm
03:59 15.7 °C 13.2 °C 1016.5 hPa Calm     85% 0 mm
04:04 15.6 °C 13.2 °C 1016.1 hPa Calm     86% 0 mm
04:09 15.4 °C 13.1 °C 1016.1 hPa Calm     86% 0 mm
04:14 15.4 °C 13.1 °C 1016.1 hPa Calm     86% 0 mm
04:19 15.4 °C 13.1 °C 1016.1 hPa Calm     86% 0 mm
04:24 15.3 °C 12.9 °C 1016.1 hPa Calm     86% 0 mm
04:29 15.3 °C 12.9 °C 1016.1 hPa Calm     86% 0 mm
04:34 15.3 °C 13.2 °C 1016.1 hPa Calm     87% 0 mm
04:39 15.3 °C 13.2 °C 1016.1 hPa Calm     87% 0 mm
04:44 15.3 °C 13.2 °C 1016.1 hPa Calm     87% 0 mm
04:49 15.3 °C 13.2 °C 1016.1 hPa Calm     87% 0 mm
04:54 15.4 °C 13.2 °C 1016.1 hPa Calm     87% 0 mm
04:59 15.4 °C 13.2 °C 1016.1 hPa Calm     87% 0 mm
05:04 15.4 °C 13.2 °C 1016.1 hPa Calm     87% 0 mm
05:09 15.4 °C 13.1 °C 1016.1 hPa Calm     86% 0 mm
05:14 15.4 °C 13.1 °C 1016.1 hPa Calm     86% 0 mm
05:19 15.4 °C 13.2 °C 1016.1 hPa Calm     87% 0 mm
05:24 15.4 °C 13.3 °C 1016.1 hPa Calm     87% 0 mm
05:29 15.4 °C 13.3 °C 1016.1 hPa Calm     87% 0 mm
05:34 15.4 °C 13.3 °C 1016.1 hPa Calm     87% 0 mm
05:39 15.5 °C 13.2 °C 1016.1 hPa Calm     86% 0 mm
05:44 15.6 °C 13.2 °C 1016.1 hPa Calm     86% 0 mm
05:49 15.7 °C 13.3 °C 1016.1 hPa Calm     86% 0 mm
05:54 15.7 °C 13.4 °C 1016.1 hPa Calm     86% 0 mm
05:59 15.8 °C 13.4 °C 1015.8 hPa Calm     86% 0 mm
06:04 15.8 °C 13.5 °C 1016.1 hPa Calm     86% 0 mm
06:09 15.8 °C 13.5 °C 1016.1 hPa Calm     86% 0 mm
06:14 15.9 °C 13.6 °C 1016.1 hPa Calm     86% 0 mm
06:19 15.9 °C 13.4 °C 1016.1 hPa Calm     85% 0 mm
06:24 15.9 °C 13.4 °C 1016.1 hPa Calm     85% 0 mm
06:29 15.9 °C 13.4 °C 1016.1 hPa Calm     85% 0 mm
06:34 15.9 °C 13.4 °C 1016.1 hPa Calm     85% 0 mm
06:39 15.9 °C 13.4 °C 1016.1 hPa Calm     85% 0 mm
06:44 15.9 °C 13.4 °C 1016.1 hPa Calm     85% 0 mm
06:49 16 °C 13.5 °C 1016.1 hPa Calm     85% 0 mm
06:54 16 °C 13.5 °C 1016.1 hPa Calm     85% 0 mm
06:59 16.1 °C 13.6 °C 1016.1 hPa Calm     85% 0 mm
07:04 16.1 °C 13.6 °C 1016.1 hPa Calm     85% 0 mm
07:09 16.1 °C 13.4 °C 1015.8 hPa Calm     84% 0 mm
07:14 16.2 °C 13.5 °C 1015.8 hPa Calm     84% 0 mm
07:19 16.3 °C 13.6 °C 1015.8 hPa Calm     84% 0 mm
07:24 16.4 °C 13.7 °C 1015.8 hPa Calm     84% 0 mm
07:29 16.6 °C 13.7 °C 1015.8 hPa Calm     83% 0 mm
07:34 16.7 °C 13.8 °C 1015.8 hPa Calm     83% 0 mm
07:39 16.9 °C 13.8 °C 1015.5 hPa Calm   4.8 km/h 82% 0 mm
07:44 17.1 °C 13.8 °C 1015.5 hPa Calm   4.8 km/h 81% 0 mm
07:49 17.2 °C 13.9 °C 1015.5 hPa SSE 3.2 km/h 6.4 km/h 81% 0 mm
07:54 17.3 °C 13.8 °C 1015.5 hPa ESE 1.6 km/h 6.4 km/h 80% 0 mm
07:59 17.5 °C 14 °C 1015.5 hPa ESE 1.6 km/h 8 km/h 80% 0 mm
08:04 17.9 °C 14.2 °C 1015.5 hPa ESE 3.2 km/h 8 km/h 79% 0 mm
08:09 18.2 °C 14.3 °C 1015.5 hPa Calm   6.4 km/h 78% 0 mm
08:14 18.6 °C 14.4 °C 1015.5 hPa SE 3.2 km/h 6.4 km/h 77% 0 mm
08:19 19 °C 14.7 °C 1015.5 hPa SSE 3.2 km/h 6.4 km/h 76% 0 mm
08:24 19.5 °C 14.9 °C 1015.5 hPa South 4.8 km/h 9.7 km/h 75% 0 mm
08:29 19.8 °C 14.8 °C 1015.5 hPa SSE 4.8 km/h 9.7 km/h 73% 0 mm
08:34 19.6 °C 14.6 °C 1015.5 hPa ESE 3.2 km/h 4.8 km/h 73% 0 mm
08:39 19.9 °C 14.9 °C 1015.5 hPa SE 4.8 km/h 4.8 km/h 73% 0 mm
08:44 20.4 °C 15.2 °C 1015.1 hPa SE 3.2 km/h 6.4 km/h 72% 0 mm
08:49 20.5 °C 15.3 °C 1015.5 hPa SSE 3.2 km/h 9.7 km/h 72% 0 mm
08:54 20.6 °C 15.2 °C 1015.5 hPa SSW 1.6 km/h 6.4 km/h 71% 0 mm
08:59 20.8 °C 15.2 °C 1015.5 hPa South 3.2 km/h 8 km/h 70% 0 mm
09:04 21.1 °C 15.2 °C 1015.5 hPa SSW 3.2 km/h 8 km/h 69% 0 mm
09:09 21.2 °C 15.5 °C 1015.5 hPa SSW 1.6 km/h 6.4 km/h 70% 0 mm
09:14 21.3 °C 15.3 °C 1015.1 hPa Calm   4.8 km/h 69% 0 mm
09:19 21.4 °C 15.2 °C 1015.5 hPa Calm   1.6 km/h 68% 0 mm
09:24 22.1 °C 15.7 °C 1015.1 hPa Calm     67% 0 mm
09:29 22.3 °C 15.4 °C 1015.1 hPa Calm   3.2 km/h 65% 0 mm
09:34 22.3 °C 15.1 °C 1015.5 hPa Calm     64% 0 mm
09:39 22.6 °C 16.2 °C 1015.1 hPa Calm     67% 0 mm
09:44 23.1 °C 16.3 °C 1015.1 hPa Calm   4.8 km/h 66% 0 mm
09:49 23.4 °C 15.5 °C 1015.1 hPa WSW 4.8 km/h 6.4 km/h 61% 0 mm
09:54 23.3 °C 15.4 °C 1015.1 hPa West 1.6 km/h 4.8 km/h 61% 0 mm
09:59 23.3 °C 15.7 °C 1015.1 hPa Calm   3.2 km/h 62% 0 mm
10:04 23.2 °C 15.3 °C 1015.1 hPa WSW 3.2 km/h 4.8 km/h 61% 0 mm
10:09 23.6 °C 16.2 °C 1014.8 hPa WSW 1.6 km/h 4.8 km/h 63% 0 mm
10:14 24.2 °C 15.7 °C 1014.8 hPa WSW 1.6 km/h 4.8 km/h 59% 0 mm
10:19 24.6 °C 16.6 °C 1014.8 hPa West 1.6 km/h 6.4 km/h 61% 0 mm
10:24 24.8 °C 15.9 °C 1014.8 hPa WNW 3.2 km/h 8 km/h 58% 0 mm
10:29 24.6 °C 15.2 °C 1014.8 hPa WNW 3.2 km/h 8 km/h 56% 0 mm
10:34 24.2 °C 16.4 °C 1014.8 hPa NW 1.6 km/h 4.8 km/h 62% 0 mm
10:39 25.1 °C 16.2 °C 1014.8 hPa West 1.6 km/h 3.2 km/h 58% 0 mm
10:44 25.3 °C 16.2 °C 1014.8 hPa WNW 3.2 km/h 4.8 km/h 57% 0 mm
10:49 25.4 °C 16 °C 1014.4 hPa WNW 1.6 km/h 6.4 km/h 56% 0 mm
10:54 25.2 °C 16.3 °C 1014.4 hPa SSW 1.6 km/h 4.8 km/h 58% 0 mm
10:59 25.3 °C 15.9 °C 1014.4 hPa South 3.2 km/h 6.4 km/h 56% 0 mm
11:04 25.1 °C 15.4 °C 1014.8 hPa SSE 6.4 km/h 6.4 km/h 55% 0 mm
11:09 25.2 °C 14.9 °C 1014.4 hPa South 1.6 km/h 6.4 km/h 53% 0 mm
11:14 25.4 °C 15.1 °C 1014.4 hPa South 3.2 km/h 6.4 km/h 53% 0 mm
11:19 25.4 °C 14.9 °C 1014.4 hPa South 1.6 km/h 6.4 km/h 52% 0 mm
11:24 25.8 °C 15.2 °C 1014.4 hPa South 1.6 km/h 4.8 km/h 52% 0 mm
11:29 25.9 °C 15.3 °C 1014.4 hPa SW 1.6 km/h 8 km/h 52% 0 mm
11:34 26.3 °C 16.2 °C 1014.4 hPa West 3.2 km/h 8 km/h 54% 0 mm
11:39 26.2 °C 15.9 °C 1014.4 hPa West 3.2 km/h 6.4 km/h 53% 0 mm
11:44 26.1 °C 16 °C 1014.4 hPa WNW 3.2 km/h 8 km/h 54% 0 mm
11:49 26.2 °C 15.2 °C 1014.1 hPa WSW 1.6 km/h 8 km/h 51% 0 mm
11:54 26.2 °C 15.3 °C 1014.4 hPa West 4.8 km/h 6.4 km/h 51% 0 mm
11:59 26.3 °C 15.9 °C 1014.4 hPa WSW 4.8 km/h 4.8 km/h 53% 0 mm
12:04 26.2 °C 15.6 °C 1014.1 hPa SW 1.6 km/h 6.4 km/h 52% 0 mm
12:09 26.9 °C 16.3 °C 1014.1 hPa SW 3.2 km/h 9.7 km/h 52% 0 mm
12:14 27.2 °C 15.5 °C 1014.1 hPa South 4.8 km/h 11.3 km/h 49% 0 mm
12:19 27.4 °C 15.4 °C 1014.1 hPa South 4.8 km/h 11.3 km/h 48% 0 mm
12:24 26.7 °C 15.4 °C 1013.8 hPa SSE 4.8 km/h 11.3 km/h 50% 0 mm
12:29 26.7 °C 15.4 °C 1014.1 hPa Calm   6.4 km/h 50% 0 mm
12:34 26.8 °C 14.9 °C 1013.8 hPa SSW 8 km/h 8 km/h 48% 0 mm
12:39 26.9 °C 15.3 °C 1013.8 hPa WSW 4.8 km/h 8 km/h 49% 0 mm
12:44 27.3 °C 17.5 °C 1013.8 hPa WSW 3.2 km/h 9.7 km/h 55% 0 mm
12:49 27.2 °C 15.5 °C 1013.8 hPa West 4.8 km/h 9.7 km/h 49% 0 mm
12:54 27.2 °C 14.9 °C 1013.4 hPa WNW 3.2 km/h 9.7 km/h 47% 0 mm
12:59 26.8 °C 17.1 °C 1013.4 hPa WNW 4.8 km/h 11.3 km/h 55% 0 mm
13:04 26.8 °C 15.2 °C 1013.4 hPa Calm   8 km/h 49% 0 mm
13:09 26.7 °C 15.4 °C 1013.4 hPa NW 4.8 km/h 11.3 km/h 50% 0 mm
13:14 27.3 °C 16.6 °C 1013.4 hPa West 11.3 km/h 12.9 km/h 52% 0 mm
13:19 26.8 °C 16.7 °C 1013.1 hPa WNW 6.4 km/h 12.9 km/h 54% 0 mm
13:24 27.3 °C 16.6 °C 1013.1 hPa West 4.8 km/h 11.3 km/h 52% 0 mm
13:29 27.6 °C 15.6 °C 1013.1 hPa West 4.8 km/h 14.5 km/h 48% 0 mm
13:34 27.7 °C 15.7 °C 1013.1 hPa West 6.4 km/h 12.9 km/h 48% 0 mm
13:39 27.6 °C 16.9 °C 1013.1 hPa WSW 4.8 km/h 14.5 km/h 52% 0 mm
13:44 27.7 °C 16.6 °C 1013.1 hPa West 6.4 km/h 11.3 km/h 51% 0 mm
13:49 27.3 °C 15.3 °C 1013.1 hPa West 3.2 km/h 11.3 km/h 48% 0 mm
13:54 27.2 °C 16.8 °C 1012.8 hPa West 1.6 km/h 6.4 km/h 53% 0 mm
13:59 27.8 °C 17.4 °C 1012.8 hPa West 1.6 km/h 8 km/h 53% 0 mm
14:04 28 °C 16.9 °C 1012.8 hPa West 3.2 km/h 8 km/h 51% 0 mm
14:09 27.9 °C 16.6 °C 1012.8 hPa Calm   9.7 km/h 50% 0 mm
14:14 27.6 °C 15.9 °C 1012.8 hPa South 8 km/h 9.7 km/h 49% 0 mm
14:19 27.3 °C 16.6 °C 1012.8 hPa SSE 3.2 km/h 9.7 km/h 52% 0 mm
14:24 27.9 °C 15.9 °C 1012.8 hPa SSW 3.2 km/h 9.7 km/h 48% 0 mm
14:29 27.8 °C 16.4 °C 1012.8 hPa WNW 3.2 km/h 6.4 km/h 50% 0 mm
14:34 27.6 °C 16.2 °C 1012.8 hPa NW 1.6 km/h 4.8 km/h 50% 0 mm
14:39 27.7 °C 16.6 °C 1012.8 hPa Calm   6.4 km/h 51% 0 mm
14:44 27.4 °C 16.4 °C 1012.4 hPa SW 1.6 km/h 6.4 km/h 51% 0 mm
14:49 27.1 °C 16.1 °C 1012.4 hPa Calm   8 km/h 51% 0 mm
14:54 27.3 °C 16.6 °C 1012.4 hPa Calm   3.2 km/h 52% 0 mm
14:59 27.2 °C 16.2 °C 1012.1 hPa Calm   4.8 km/h 51% 0 mm
15:04 27.4 °C 16.4 °C 1012.4 hPa East 1.6 km/h 8 km/h 51% 0 mm
15:09 27.4 °C 16.3 °C 1012.4 hPa ENE 3.2 km/h 9.7 km/h 51% 0 mm
15:14 27.6 °C 16.8 °C 1012.1 hPa ESE 3.2 km/h 9.7 km/h 52% 0 mm
15:19 27.8 °C 17.9 °C 1012.1 hPa SE 3.2 km/h 8 km/h 55% 0 mm
15:24 28 °C 16.6 °C 1012.1 hPa South 1.6 km/h 11.3 km/h 50% 0 mm
15:29 27.6 °C 15.9 °C 1012.1 hPa WSW 3.2 km/h 6.4 km/h 49% 0 mm
15:34 27.4 °C 16.7 °C 1012.1 hPa SSE 1.6 km/h 9.7 km/h 52% 0 mm
15:39 27.3 °C 16 °C 1011.7 hPa SE 3.2 km/h 8 km/h 50% 0 mm
15:44 27.1 °C 16.7 °C 1012.1 hPa Calm   8 km/h 53% 0 mm
15:49 27.6 °C 16.6 °C 1011.7 hPa ESE 8 km/h 11.3 km/h 51% 0 mm
15:54 27.7 °C 17.6 °C 1011.7 hPa SE 8 km/h 9.7 km/h 54% 0 mm
15:59 27.8 °C 17.1 °C 1011.7 hPa ESE 4.8 km/h 11.3 km/h 52% 0 mm
16:04 27.8 °C 17.1 °C 1011.7 hPa ESE 3.2 km/h 11.3 km/h 52% 0 mm
16:09 27.8 °C 16.7 °C 1011.7 hPa NNW 1.6 km/h 6.4 km/h 51% 0 mm
16:14 27.5 °C 16.8 °C 1011.7 hPa NNE 1.6 km/h 8 km/h 52% 0 mm
16:19 27.3 °C 16.3 °C 1011.4 hPa ENE 3.2 km/h 9.7 km/h 51% 0 mm
16:24 27.2 °C 16.4 °C 1011.4 hPa East 4.8 km/h 9.7 km/h 52% 0 mm
16:29 27.1 °C 15.7 °C 1011.4 hPa ESE 3.2 km/h 9.7 km/h 50% 0 mm
16:34 26.8 °C 16.2 °C 1011.4 hPa SSE 3.2 km/h 4.8 km/h 52% 0 mm
16:39 26.8 °C 15.8 °C 1011.4 hPa Calm   8 km/h 51% 0 mm
16:44 26.8 °C 16.2 °C 1011.1 hPa South 1.6 km/h 4.8 km/h 52% 0 mm
16:49 26.8 °C 16.4 °C 1011.1 hPa SW 1.6 km/h 8 km/h 53% 0 mm
16:54 27.1 °C 16.4 °C 1011.1 hPa Calm   4.8 km/h 52% 0 mm
16:59 27.2 °C 16.8 °C 1011.1 hPa NE 1.6 km/h 6.4 km/h 53% 0 mm
17:04 27 °C 16.3 °C 1010.7 hPa NE 1.6 km/h 6.4 km/h 52% 0 mm
17:09 26.9 °C 17.1 °C 1010.7 hPa Calm   8 km/h 55% 0 mm
17:14 26.6 °C 16.8 °C 1010.7 hPa NNW 1.6 km/h 9.7 km/h 55% 0 mm
17:19 26.3 °C 17.3 °C 1010.7 hPa NNW 3.2 km/h 9.7 km/h 58% 0 mm
17:24 26.1 °C 17.2 °C 1010.7 hPa SW 1.6 km/h 8 km/h 58% 0 mm
17:29 26 °C 17.1 °C 1010.7 hPa NNW 3.2 km/h 8 km/h 58% 0 mm
17:34 25.9 °C 17 °C 1010.7 hPa North 3.2 km/h 8 km/h 58% 0 mm
17:39 25.7 °C 16.8 °C 1010.7 hPa NNE 6.4 km/h 8 km/h 58% 0 mm
17:44 25.8 °C 17.4 °C 1010.4 hPa NNW 4.8 km/h 11.3 km/h 60% 0 mm
17:49 26.3 °C 18.2 °C 1010.4 hPa NNW 1.6 km/h 11.3 km/h 61% 0 mm
17:54 26.4 °C 18.8 °C 1010.4 hPa NNE 3.2 km/h 4.8 km/h 63% 0 mm
17:59 26.1 °C 18.7 °C 1010.4 hPa North 1.6 km/h 6.4 km/h 64% 0 mm
18:04 25.8 °C 18.5 °C 1010.4 hPa North 1.6 km/h 6.4 km/h 64% 0 mm
18:09 25.7 °C 18.2 °C 1010.4 hPa NNW 3.2 km/h 9.7 km/h 63% 0 mm
18:14 25.6 °C 18.5 °C 1010.4 hPa NW 8 km/h 11.3 km/h 65% 0 mm
18:19 25.4 °C 19.1 °C 1010.4 hPa North 3.2 km/h 12.9 km/h 68% 0 mm
18:24 25.2 °C 19.1 °C 1010.4 hPa NE 3.2 km/h 11.3 km/h 69% 0 mm
18:29 25.3 °C 19.4 °C 1010.4 hPa ENE 6.4 km/h 6.4 km/h 70% 0 mm
18:34 25.3 °C 19.2 °C 1010 hPa ENE 3.2 km/h 12.9 km/h 69% 0 mm
18:39 25.2 °C 19.1 °C 1010 hPa NE 3.2 km/h 12.9 km/h 69% 0 mm
18:44 25.1 °C 18.9 °C 1010 hPa NE 4.8 km/h 12.9 km/h 69% 0 mm
18:49 24.8 °C 19 °C 1010 hPa NE 4.8 km/h 12.9 km/h 70% 0 mm
18:54 24.7 °C 18.9 °C 1010 hPa NE 3.2 km/h 14.5 km/h 70% 0 mm
18:59 24.7 °C 18.8 °C 1010 hPa ENE 3.2 km/h 8 km/h 70% 0 mm
19:04 24.7 °C 19.1 °C 1010 hPa Calm   4.8 km/h 71% 0 mm
19:09 24.7 °C 18.9 °C 1010 hPa NE 1.6 km/h 4.8 km/h 70% 0 mm
19:14 24.8 °C 19 °C 1010.4 hPa Calm   6.4 km/h 70% 0 mm
19:19 24.9 °C 19.1 °C 1010.4 hPa NE 4.8 km/h 8 km/h 70% 0 mm
19:24 24.9 °C 18.8 °C 1010 hPa Calm   4.8 km/h 69% 0 mm
19:29 24.8 °C 19 °C 1010 hPa NE 3.2 km/h 6.4 km/h 70% 0 mm
19:34 24.7 °C 18.9 °C 1010 hPa NE 3.2 km/h 4.8 km/h 70% 0 mm
19:39 24.5 °C 18.9 °C 1010 hPa NE 1.6 km/h 4.8 km/h 71% 0 mm
19:44 24.3 °C 18.7 °C 1010 hPa Calm   4.8 km/h 71% 0 mm
19:49 24.2 °C 18.6 °C 1010.4 hPa Calm     71% 0 mm
19:54 24.2 °C 18.8 °C 1010.4 hPa Calm     72% 0 mm
19:59 24 °C 18.7 °C 1010.4 hPa Calm   3.2 km/h 72% 0 mm
20:04 23.9 °C 18.6 °C 1010.4 hPa Calm   3.2 km/h 72% 0 mm
20:09 23.8 °C 18.7 °C 1010.4 hPa Calm   3.2 km/h 73% 0 mm
20:14 23.9 °C 18.8 °C 1010.4 hPa Calm   6.4 km/h 73% 0 mm
20:19 23.8 °C 18.7 °C 1010.4 hPa Calm   1.6 km/h 73% 0 mm
20:24 23.7 °C 18.6 °C 1010.4 hPa NE 3.2 km/h 4.8 km/h 73% 0 mm
20:29 23.7 °C 18.8 °C 1010.4 hPa Calm   3.2 km/h 74% 0 mm
20:34 23.6 °C 18.7 °C 1010.4 hPa Calm     74% 0 mm
20:39 23.5 °C 18.6 °C 1010.4 hPa Calm     74% 0 mm
20:44 23.4 °C 18.6 °C 1010.4 hPa Calm     74% 0 mm
20:49 23.4 °C 18.5 °C 1010.4 hPa Calm     74% 0 mm
20:54 23.3 °C 18.4 °C 1010.4 hPa Calm     74% 0 mm
20:59 23.2 °C 18.6 °C 1010.4 hPa Calm     75% 0 mm
21:04 23.2 °C 18.6 °C 1010.4 hPa Calm     75% 0 mm
21:09 23.3 °C 18.6 °C 1010.7 hPa Calm     75% 0 mm
21:14 23.3 °C 18.4 °C 1010.4 hPa WNW 3.2 km/h 4.8 km/h 74% 0 mm
21:19 23.3 °C 18.4 °C 1010.4 hPa WNW 1.6 km/h 4.8 km/h 74% 0 mm
21:24 23.2 °C 18.5 °C 1010.4 hPa Calm     75% 0 mm
21:29 23 °C 18.3 °C 1010.4 hPa Calm     75% 0 mm
21:34 22.9 °C 18.2 °C 1010.4 hPa Calm   1.6 km/h 75% 0 mm
21:39 22.8 °C 18.1 °C 1010.7 hPa Calm   3.2 km/h 75% 0 mm
21:44 22.7 °C 18.2 °C 1010.7 hPa Calm   3.2 km/h 76% 0 mm
21:49 22.6 °C 18.2 °C 1010.4 hPa Calm     76% 0 mm
21:54 22.6 °C 18.1 °C 1010.4 hPa Calm     76% 0 mm
21:59 22.4 °C 18 °C 1010.4 hPa Calm     76% 0 mm
22:04 22.4 °C 18 °C 1010.4 hPa Calm     76% 0 mm
22:09 22.4 °C 17.9 °C 1010.4 hPa Calm     76% 0 mm
22:14 22.3 °C 17.8 °C 1010.4 hPa Calm     76% 0 mm
22:19 22.2 °C 17.7 °C 1010.4 hPa Calm     76% 0 mm
22:24 22.2 °C 17.9 °C 1010.4 hPa Calm     77% 0 mm
22:29 22 °C 17.6 °C 1010.4 hPa Calm     76% 0 mm
22:34 21.8 °C 17.6 °C 1010.4 hPa Calm     77% 0 mm
22:39 21.7 °C 17.4 °C 1010.4 hPa Calm     77% 0 mm
22:44 21.6 °C 17.6 °C 1010.4 hPa Calm     78% 0 mm
22:49 21.4 °C 17.4 °C 1010.4 hPa Calm     78% 0 mm
22:54 21.3 °C 17.5 °C 1010.4 hPa Calm     79% 0 mm
22:59 21.1 °C 17.3 °C 1010.4 hPa Calm     79% 0 mm
23:04 21 °C 17.4 °C 1010.4 hPa Calm     80% 0 mm
23:09 20.9 °C 17.3 °C 1010.4 hPa Calm   4.8 km/h 80% 0 mm
23:14 20.9 °C 17.5 °C 1010.4 hPa SW 1.6 km/h 6.4 km/h 81% 0 mm
23:19 20.9 °C 17.3 °C 1010.4 hPa SSW 1.6 km/h 6.4 km/h 80% 0 mm
23:24 20.9 °C 17.2 °C 1010.4 hPa SW 1.6 km/h 6.4 km/h 79% 0 mm
23:29 20.9 °C 16.9 °C 1010.4 hPa Calm   3.2 km/h 78% 0 mm
23:34 20.8 °C 16.8 °C 1010.4 hPa Calm     78% 0 mm
23:39 20.7 °C 16.7 °C 1010.4 hPa Calm     78% 0 mm
23:44 20.6 °C 16.4 °C 1010.4 hPa Calm     77% 0 mm
23:49 20.4 °C 16.3 °C 1010.4 hPa Calm     77% 0 mm
23:54 20.3 °C 15.9 °C 1010.4 hPa Calm     76% 0 mm
23:59 20.2 °C 15.8 °C 1010.4 hPa Calm     76% 0 mm
Buffalo, New York, USA
Compliments of Weather Underground - 2.5 mb